| time (UTC) | temp C | wind direction | speed KPH | gust KPH | rain 1hr cm | rain 24hr cm | rain mn cm | humidity % | barometer mb |
| 20260509064504 | 8 | 69 | 0.0 | 0.0 | 0.00 | 0.05 | 0.03 | 92 | 1008.1 |
| 20260509064007 | 8 | 69 | 0.0 | 0.0 | 0.00 | 0.05 | 0.03 | 91 | 1008.2 |
| 20260509063504 | 8 | 69 | 0.0 | 0.0 | 0.00 | 0.05 | 0.03 | 91 | 1008.2 |
| 20260509063009 | 8 | 69 | 0.0 | 0.0 | 0.00 | 0.05 | 0.03 | 91 | 1008.4 |
| 20260509062503 | 8 | 69 | 0.0 | 0.0 | 0.00 | 0.05 | 0.03 | 91 | 1008.4 |
| 20260509062004 | 8 | 69 | 0.0 | 0.0 | 0.00 | 0.05 | 0.03 | 91 | 1008.5 |
| 20260509061504 | 8 | 69 | 0.0 | 0.0 | 0.00 | 0.05 | 0.03 | 91 | 1008.6 |
| 20260509061004 | 8 | 69 | 0.0 | 0.0 | 0.00 | 0.05 | 0.03 | 91 | 1008.6 |
| 20260509060505 | 8 | 69 | 0.0 | 1.6 | 0.00 | 0.05 | 0.03 | 91 | 1008.7 |
| 20260509060009 | 8 | 69 | 0.0 | 1.6 | 0.00 | 0.05 | 0.03 | 92 | 1008.7 |
| 20260509055504 | 8 | 78 | 0.0 | 0.0 | 0.00 | 0.05 | 0.03 | 91 | 1008.7 |
| 20260509055004 | 8 | 355 | 0.0 | 0.0 | 0.00 | 0.05 | 0.03 | 91 | 1008.7 |
| 20260509054513 | 8 | 355 | 0.0 | 0.0 | 0.00 | 0.05 | 0.03 | 91 | 1008.8 |
| 20260509054012 | 8 | 355 | 0.0 | 0.0 | 0.00 | 0.05 | 0.03 | 91 | 1008.9 |
| 20260509053506 | 8 | 355 | 0.0 | 0.0 | 0.00 | 0.05 | 0.03 | 91 | 1008.9 |
| 20260509053019 | 8 | 355 | 0.0 | 0.0 | 0.00 | 0.05 | 0.03 | 91 | 1009.0 |
| 20260509052508 | 8 | 355 | 0.0 | 0.0 | 0.00 | 0.05 | 0.03 | 91 | 1009.0 |
| 20260509052004 | 8 | 355 | 0.0 | 0.0 | 0.00 | 0.05 | 0.03 | 91 | 1009.2 |
| 20260509051510 | 8 | 355 | 0.0 | 0.0 | 0.00 | 0.05 | 0.03 | 91 | 1009.4 |
| 20260509051007 | 8 | 355 | 0.0 | 0.0 | 0.00 | 0.05 | 0.03 | 91 | 1009.6 |
| 20260509050505 | 8 | 355 | 0.0 | 0.0 | 0.00 | 0.05 | 0.03 | 91 | 1009.6 |
| 20260509050034 | 8 | 355 | 0.0 | 0.0 | 0.03 | 0.08 | 0.03 | 91 | 1009.6 |
| 20260509045507 | 8 | 355 | 0.0 | 0.0 | 0.03 | 0.08 | 0.03 | 91 | 1009.6 |
| 20260509045004 | 8 | 355 | 0.0 | 0.0 | 0.03 | 0.08 | 0.03 | 90 | 1009.6 |
| 20260509044519 | 8 | 355 | 0.0 | 1.6 | 0.03 | 0.08 | 0.03 | 91 | 1009.7 |
| 20260509044015 | 8 | 355 | 0.0 | 1.6 | 0.03 | 0.08 | 0.03 | 91 | 1009.7 |
| 20260509043503 | 8 | 360 | 0.0 | 1.6 | 0.03 | 0.08 | 0.03 | 91 | 1009.5 |
| 20260509043034 | 8 | 360 | 0.0 | 0.0 | 0.03 | 0.08 | 0.03 | 90 | 1009.5 |
| 20260509042509 | 8 | 360 | 0.0 | 0.0 | 0.03 | 0.08 | 0.03 | 90 | 1009.5 |
| 20260509042006 | 8 | 360 | 0.0 | 0.0 | 0.03 | 0.08 | 0.03 | 90 | 1009.5 |
| 20260509041508 | 9 | 360 | 0.0 | 0.0 | 0.03 | 0.08 | 0.03 | 90 | 1009.4 |
| 20260509041005 | 9 | 360 | 0.0 | 0.0 | 0.03 | 0.08 | 0.03 | 90 | 1009.5 |
| 20260509040507 | 9 | 360 | 0.0 | 0.0 | 0.03 | 0.08 | 0.03 | 90 | 1009.6 |
| 20260509040014 | 9 | 360 | 0.0 | 0.0 | 0.00 | 0.05 | 0.00 | 89 | 1009.6 |
| 20260509035506 | 9 | 360 | 0.0 | 0.0 | 0.00 | 0.05 | 0.05 | 89 | 1009.5 |
| 20260509035004 | 9 | 360 | 0.0 | 1.6 | 0.00 | 0.05 | 0.05 | 89 | 1009.6 |
| 20260509034513 | 9 | 360 | 0.0 | 1.6 | 0.00 | 0.05 | 0.05 | 89 | 1009.7 |
| 20260509034008 | 9 | 360 | 0.0 | 1.6 | 0.00 | 0.05 | 0.05 | 89 | 1009.8 |
| 20260509033512 | 9 | 360 | 0.0 | 1.6 | 0.00 | 0.05 | 0.05 | 89 | 1009.7 |
| 20260509033012 | 9 | 360 | 0.0 | 1.6 | 0.00 | 0.05 | 0.05 | 89 | 1009.5 |
| 20260509032512 | 9 | 360 | 0.0 | 1.6 | 0.00 | 0.05 | 0.05 | 88 | 1009.5 |
| 20260509032010 | 9 | 360 | 0.0 | 0.0 | 0.00 | 0.05 | 0.05 | 88 | 1009.3 |
| 20260509031513 | 8 | 360 | 0.0 | 0.0 | 0.00 | 0.05 | 0.05 | 88 | 1009.3 |
| 20260509031007 | 8 | 360 | 0.0 | 0.0 | 0.00 | 0.05 | 0.05 | 88 | 1009.4 |
| 20260509030505 | 8 | 360 | 0.0 | 0.0 | 0.00 | 0.05 | 0.05 | 87 | 1009.3 |
| 20260509030019 | 8 | 360 | 0.0 | 0.0 | 0.00 | 0.05 | 0.05 | 87 | 1009.3 |
| 20260509025507 | 8 | 360 | 0.0 | 0.0 | 0.00 | 0.05 | 0.05 | 87 | 1009.5 |
| 20260509025006 | 8 | 360 | 0.0 | 0.0 | 0.00 | 0.05 | 0.05 | 87 | 1009.5 |
| 20260509024516 | 8 | 360 | 0.0 | 0.0 | 0.00 | 0.05 | 0.05 | 86 | 1009.5 |
| 20260509024005 | 9 | 360 | 0.0 | 0.0 | 0.00 | 0.05 | 0.05 | 85 | 1009.7 |
| 20260509023506 | 9 | 360 | 0.0 | 0.0 | 0.00 | 0.05 | 0.05 | 85 | 1009.6 |
| 20260509023024 | 9 | 360 | 0.0 | 0.0 | 0.00 | 0.05 | 0.05 | 84 | 1009.6 |
| 20260509022507 | 10 | 360 | 0.0 | 0.0 | 0.00 | 0.05 | 0.05 | 83 | 1009.7 |
| 20260509022009 | 10 | 360 | 0.0 | 0.0 | 0.00 | 0.05 | 0.05 | 83 | 1009.8 |
| 20260509021512 | 10 | 360 | 0.0 | 0.0 | 0.00 | 0.05 | 0.05 | 83 | 1009.6 |
| 20260509021004 | 10 | 360 | 0.0 | 0.0 | 0.00 | 0.05 | 0.05 | 82 | 1009.4 |
| 20260509020507 | 10 | 360 | 0.0 | 1.6 | 0.00 | 0.08 | 0.05 | 81 | 1009.3 |
| 20260509020017 | 10 | 360 | 0.0 | 4.8 | 0.00 | 0.08 | 0.05 | 80 | 1009.3 |
| 20260509015507 | 10 | 348 | 0.0 | 4.8 | 0.00 | 0.08 | 0.05 | 79 | 1009.2 |
| 20260509015010 | 10 | 302 | 0.0 | 3.2 | 0.00 | 0.08 | 0.05 | 80 | 1008.7 |
| 20260509014509 | 10 | 329 | 0.0 | 3.2 | 0.00 | 0.08 | 0.05 | 79 | 1008.9 |
| 20260509014007 | 10 | 338 | 0.0 | 3.2 | 0.00 | 0.08 | 0.05 | 78 | 1009.5 |
| 20260509013506 | 11 | 325 | 0.0 | 3.2 | 0.00 | 0.08 | 0.05 | 77 | 1009.5 |
| 20260509013016 | 11 | 327 | 0.0 | 3.2 | 0.00 | 0.08 | 0.05 | 77 | 1009.6 |
| 20260509012506 | 11 | 346 | 0.0 | 8.0 | 0.00 | 0.08 | 0.05 | 77 | 1009.6 |
| 20260509012009 | 11 | 24 | 0.0 | 8.0 | 0.00 | 0.08 | 0.05 | 75 | 1009.4 |
| 20260509011510 | 11 | 5 | 0.0 | 4.8 | 0.00 | 0.08 | 0.05 | 73 | 1009.2 |
| 20260509011008 | 11 | 5 | 0.0 | 1.6 | 0.00 | 0.08 | 0.05 | 75 | 1009.0 |
| 20260509010506 | 11 | 5 | 0.0 | 3.2 | 0.00 | 0.08 | 0.05 | 71 | 1008.9 |
| 20260509010021 | 11 | 12 | 0.0 | 3.2 | 0.00 | 0.08 | 0.05 | 73 | 1008.9 |
| 20260509005508 | 11 | 43 | 0.0 | 3.2 | 0.00 | 0.08 | 0.05 | 70 | 1008.7 |
| 20260509005009 | 11 | 329 | 0.0 | 3.2 | 0.00 | 0.08 | 0.05 | 69 | 1008.7 |
| 20260509004521 | 11 | 346 | 0.0 | 4.8 | 0.00 | 0.08 | 0.05 | 70 | 1008.8 |
| 20260509004007 | 12 | 321 | 0.0 | 4.8 | 0.00 | 0.08 | 0.05 | 69 | 1008.7 |
| 20260509003505 | 12 | 329 | 0.0 | 8.0 | 0.00 | 0.08 | 0.05 | 69 | 1008.8 |
| 20260509003017 | 12 | 360 | 1.6 | 8.0 | 0.00 | 0.08 | 0.05 | 70 | 1008.8 |
| 20260509002509 | 12 | 355 | 1.6 | 6.4 | 0.00 | 0.08 | 0.05 | 67 | 1008.8 |
| 20260509002012 | 12 | 5 | 0.0 | 4.8 | 0.00 | 0.08 | 0.05 | 68 | 1008.8 |
| 20260509001516 | 12 | 360 | 1.6 | 4.8 | 0.00 | 0.08 | 0.05 | 67 | 1008.8 |
| 20260509001007 | 12 | 339 | 1.6 | 9.7 | 0.00 | 0.08 | 0.05 | 66 | 1008.7 |
| 20260509000506 | 12 | 327 | 1.6 | 19.3 | 0.00 | 0.08 | 0.05 | 67 | 1008.7 |
| 20260509000028 | 12 | 5 | 6.4 | 19.3 | 0.00 | 0.08 | 0.05 | 65 | 1008.7 |
| 20260508235510 | 12 | 39 | 3.2 | 16.1 | 0.00 | 0.08 | 0.05 | 65 | 1008.6 |
| 20260508235007 | 12 | 355 | 3.2 | 20.9 | 0.00 | 0.08 | 0.05 | 65 | 1008.5 |
| 20260508234516 | 12 | 28 | 9.7 | 20.9 | 0.00 | 0.08 | 0.05 | 65 | 1008.4 |
| 20260508234012 | 12 | 65 | 1.6 | 17.7 | 0.00 | 0.08 | 0.05 | 65 | 1008.4 |
| 20260508233507 | 12 | 311 | 6.4 | 14.5 | 0.00 | 0.08 | 0.05 | 65 | 1008.3 |
| 20260508233016 | 12 | 32 | 6.4 | 22.5 | 0.00 | 0.08 | 0.05 | 65 | 1008.4 |
| 20260508232509 | 12 | 16 | 8.0 | 22.5 | 0.00 | 0.08 | 0.05 | 65 | 1008.5 |
| 20260508232007 | 12 | 59 | 8.0 | 22.5 | 0.00 | 0.08 | 0.05 | 66 | 1008.5 |
| 20260508231516 | 12 | 17 | 4.8 | 17.7 | 0.00 | 0.08 | 0.05 | 67 | 1008.4 |
| 20260508231009 | 13 | 180 | 3.2 | 14.5 | 0.00 | 0.08 | 0.05 | 67 | 1008.3 |
| 20260508230506 | 13 | 343 | 4.8 | 12.9 | 0.00 | 0.08 | 0.05 | 67 | 1008.2 |
| 20260508230020 | 13 | 309 | 3.2 | 19.3 | 0.00 | 0.08 | 0.05 | 68 | 1008.3 |
| 20260508225510 | 13 | 304 | 6.4 | 19.3 | 0.00 | 0.08 | 0.05 | 67 | 1008.1 |
| 20260508225010 | 13 | 331 | 1.6 | 20.9 | 0.00 | 0.08 | 0.05 | 68 | 1008.2 |
| 20260508224543 | 13 | 348 | 4.8 | 20.9 | 0.00 | 0.08 | 0.05 | 67 | 1008.1 |
| 20260508224008 | 13 | 302 | 4.8 | 19.3 | 0.00 | 0.08 | 0.05 | 66 | 1008.1 |
| 20260508223504 | 13 | 330 | 4.8 | 19.3 | 0.00 | 0.08 | 0.05 | 67 | 1008.2 |
| 20260508223005 | 13 | 5 | 6.4 | 19.3 | 0.00 | 0.08 | 0.05 | 68 | 1008.2 |
| 20260508222506 | 13 | 28 | 3.2 | 8.0 | 0.00 | 0.08 | 0.05 | 70 | 1008.1 |
| 20260508222002 | 13 | 336 | 3.2 | 8.0 | 0.00 | 0.08 | 0.05 | 71 | 1008.3 |
| 20260508221518 | 13 | 277 | 1.6 | 6.4 | 0.00 | 0.08 | 0.05 | 71 | 1008.2 |
| 20260508221008 | 13 | 321 | 1.6 | 6.4 | 0.00 | 0.08 | 0.05 | 74 | 1008.3 |
| 20260508220503 | 12 | 331 | 1.6 | 4.8 | 0.00 | 0.08 | 0.05 | 74 | 1008.4 |
| 20260508220030 | 12 | 299 | 0.0 | 3.2 | 0.00 | 0.08 | 0.05 | 75 | 1008.5 |
| 20260508215503 | 12 | 59 | 0.0 | 6.4 | 0.00 | 0.08 | 0.05 | 75 | 1008.5 |
| 20260508215002 | 12 | 314 | 0.0 | 8.0 | 0.00 | 0.08 | 0.05 | 77 | 1008.5 |
| 20260508214504 | 12 | 350 | 3.2 | 8.0 | 0.00 | 0.08 | 0.05 | 75 | 1008.6 |
| 20260508214006 | 12 | 338 | 3.2 | 9.7 | 0.00 | 0.08 | 0.05 | 76 | 1008.6 |
| 20260508213503 | 12 | 322 | 3.2 | 9.7 | 0.03 | 0.08 | 0.05 | 75 | 1008.4 |
| 20260508213006 | 12 | 5 | 1.6 | 8.0 | 0.03 | 0.08 | 0.05 | 77 | 1008.3 |
| 20260508212504 | 12 | 341 | 0.0 | 6.4 | 0.03 | 0.08 | 0.05 | 76 | 1008.2 |
| 20260508212004 | 11 | 33 | 1.6 | 9.7 | 0.03 | 0.08 | 0.05 | 77 | 1008.3 |
| 20260508211508 | 11 | 50 | 1.6 | 9.7 | 0.03 | 0.08 | 0.05 | 77 | 1008.4 |
| 20260508211002 | 11 | 11 | 1.6 | 8.0 | 0.03 | 0.08 | 0.05 | 77 | 1008.6 |
| 20260508210503 | 11 | 10 | 0.0 | 8.0 | 0.03 | 0.08 | 0.05 | 78 | 1008.5 |
| 20260508210007 | 11 | 5 | 4.8 | 11.3 | 0.03 | 0.08 | 0.05 | 78 | 1008.5 |
| 20260508205506 | 11 | 332 | 3.2 | 11.3 | 0.03 | 0.08 | 0.05 | 78 | 1008.6 |
| 20260508205007 | 11 | 28 | 1.6 | 19.3 | 0.03 | 0.08 | 0.05 | 80 | 1008.6 |
| 20260508204506 | 11 | 350 | 3.2 | 19.3 | 0.03 | 0.08 | 0.05 | 76 | 1008.8 |
| 20260508204006 | 11 | 19 | 4.8 | 24.1 | 0.03 | 0.08 | 0.05 | 74 | 1009.0 |
| 20260508203510 | 12 | 28 | 11.3 | 27.4 | 0.00 | 0.05 | 0.03 | 71 | 1009.1 |
| 20260508203008 | 13 | 19 | 11.3 | 27.4 | 0.00 | 0.05 | 0.03 | 64 | 1009.0 |
| 20260508202507 | 13 | 58 | 4.8 | 24.1 | 0.00 | 0.05 | 0.03 | 59 | 1008.6 |
| 20260508202006 | 14 | 5 | 8.0 | 25.7 | 0.00 | 0.05 | 0.03 | 54 | 1008.3 |
| 20260508201508 | 14 | 71 | 8.0 | 25.7 | 0.00 | 0.05 | 0.03 | 53 | 1008.2 |
| 20260508201007 | 14 | 360 | 4.8 | 16.1 | 0.00 | 0.05 | 0.03 | 54 | 1008.1 |
| 20260508200504 | 13 | 42 | 4.8 | 16.1 | 0.00 | 0.05 | 0.03 | 56 | 1008.2 |
| 20260508200026 | 13 | 286 | 0.0 | 3.2 | 0.00 | 0.05 | 0.03 | 61 | 1008.2 |
| 20260508195506 | 13 | 278 | 0.0 | 3.2 | 0.00 | 0.05 | 0.03 | 63 | 1008.3 |
| 20260508195004 | 13 | 315 | 0.0 | 3.2 | 0.00 | 0.05 | 0.03 | 59 | 1008.3 |
| 20260508194514 | 13 | 28 | 0.0 | 3.2 | 0.00 | 0.05 | 0.03 | 62 | 1008.5 |
| 20260508194011 | 13 | 173 | 0.0 | 3.2 | 0.00 | 0.05 | 0.03 | 62 | 1008.3 |
| 20260508193504 | 13 | 180 | 0.0 | 3.2 | 0.00 | 0.05 | 0.03 | 64 | 1008.3 |
| 20260508193012 | 13 | 178 | 0.0 | 3.2 | 0.00 | 0.05 | 0.03 | 60 | 1008.5 |
| 20260508192508 | 13 | 141 | 0.0 | 3.2 | 0.00 | 0.05 | 0.03 | 63 | 1008.5 |
| 20260508192014 | 13 | 18 | 1.6 | 3.2 | 0.00 | 0.05 | 0.03 | 59 | 1008.5 |
| 20260508191508 | 13 | 139 | 0.0 | 3.2 | 0.00 | 0.05 | 0.03 | 60 | 1008.3 |
| 20260508191004 | 13 | 163 | 0.0 | 6.4 | 0.00 | 0.05 | 0.03 | 61 | 1008.3 |
| 20260508190513 | 13 | 157 | 0.0 | 9.7 | 0.00 | 0.05 | 0.03 | 62 | 1008.3 |
| 20260508190016 | 13 | 151 | 3.2 | 9.7 | 0.00 | 0.05 | 0.03 | 62 | 1008.2 |
| 20260508185505 | 13 | 147 | 0.0 | 8.0 | 0.00 | 0.05 | 0.03 | 62 | 1008.3 |
| 20260508185003 | 14 | 115 | 1.6 | 8.0 | 0.00 | 0.05 | 0.03 | 62 | 1008.5 |
| 20260508184506 | 14 | 142 | 1.6 | 12.9 | 0.00 | 0.05 | 0.03 | 65 | 1008.4 |
| 20260508184006 | 14 | 124 | 1.6 | 12.9 | 0.00 | 0.05 | 0.03 | 64 | 1008.6 |
| 20260508183507 | 14 | 157 | 3.2 | 9.7 | 0.00 | 0.05 | 0.03 | 54 | 1008.8 |
| 20260508183014 | 15 | 50 | 0.0 | 16.1 | 0.00 | 0.05 | 0.03 | 50 | 1008.6 |
| 20260508182507 | 15 | 78 | 3.2 | 16.1 | 0.00 | 0.05 | 0.03 | 51 | 1008.5 |
| 20260508182003 | 15 | 73 | 4.8 | 14.5 | 0.00 | 0.05 | 0.03 | 49 | 1008.6 |
| 20260508181518 | 15 | 35 | 3.2 | 17.7 | 0.00 | 0.05 | 0.03 | 50 | 1008.4 |
| 20260508181007 | 16 | 333 | 4.8 | 20.9 | 0.00 | 0.05 | 0.03 | 49 | 1008.6 |
| 20260508180505 | 16 | 5 | 9.7 | 22.5 | 0.00 | 0.05 | 0.03 | 46 | 1008.8 |
| 20260508180010 | 16 | 316 | 4.8 | 25.7 | 0.00 | 0.05 | 0.03 | 50 | 1008.9 |
| 20260508175507 | 16 | 360 | 8.0 | 25.7 | 0.00 | 0.05 | 0.03 | 49 | 1008.9 |
| 20260508175007 | 16 | 344 | 9.7 | 20.9 | 0.00 | 0.05 | 0.03 | 55 | 1008.9 |
| 20260508174512 | 16 | 17 | 3.2 | 19.3 | 0.00 | 0.05 | 0.03 | 59 | 1008.9 |
| 20260508174009 | 16 | 42 | 3.2 | 14.5 | 0.00 | 0.05 | 0.03 | 58 | 1009.0 |
| 20260508173507 | 15 | 5 | 4.8 | 14.5 | 0.00 | 0.05 | 0.03 | 56 | 1009.1 |
| 20260508173019 | 15 | 67 | 1.6 | 19.3 | 0.00 | 0.05 | 0.03 | 60 | 1009.1 |
| 20260508172507 | 14 | 63 | 3.2 | 19.3 | 0.00 | 0.05 | 0.03 | 58 | 1009.2 |
| 20260508172007 | 13 | 53 | 4.8 | 22.5 | 0.00 | 0.05 | 0.03 | 54 | 1009.3 |
| 20260508171528 | 13 | 5 | 4.8 | 22.5 | 0.00 | 0.05 | 0.03 | 52 | 1009.4 |
| 20260508171010 | 13 | 327 | 4.8 | 22.5 | 0.00 | 0.05 | 0.03 | 51 | 1009.4 |
| 20260508170505 | 13 | 39 | 6.4 | 22.5 | 0.00 | 0.05 | 0.03 | 50 | 1009.3 |
| 20260508170010 | 14 | 19 | 4.8 | 20.9 | 0.00 | 0.05 | 0.03 | 51 | 1009.3 |
| 20260508165507 | 14 | 11 | 4.8 | 20.9 | 0.00 | 0.05 | 0.03 | 50 | 1009.2 |
| 20260508165005 | 14 | 40 | 4.8 | 25.7 | 0.00 | 0.05 | 0.03 | 49 | 1009.3 |
| 20260508164512 | 14 | 251 | 6.4 | 25.7 | 0.00 | 0.05 | 0.03 | 52 | 1009.2 |
| 20260508164007 | 13 | 345 | 4.8 | 22.5 | 0.00 | 0.05 | 0.03 | 50 | 1009.4 |
| 20260508163507 | 14 | 37 | 6.4 | 24.1 | 0.00 | 0.05 | 0.03 | 49 | 1009.3 |
| 20260508163018 | 14 | 5 | 9.7 | 24.1 | 0.00 | 0.05 | 0.03 | 48 | 1009.3 |
| 20260508162506 | 15 | 59 | 9.7 | 24.1 | 0.00 | 0.05 | 0.03 | 49 | 1009.2 |
| 20260508162008 | 14 | 28 | 6.4 | 24.1 | 0.00 | 0.05 | 0.03 | 52 | 1009.5 |
| 20260508161531 | 14 | 355 | 1.6 | 16.1 | 0.00 | 0.05 | 0.03 | 52 | 1009.4 |
| 20260508161007 | 14 | 331 | 1.6 | 20.9 | 0.00 | 0.05 | 0.03 | 52 | 1009.6 |
| 20260508160508 | 14 | 244 | 9.7 | 20.9 | 0.00 | 0.05 | 0.03 | 50 | 1009.4 |
| 20260508160027 | 14 | 33 | 8.0 | 25.7 | 0.00 | 0.05 | 0.03 | 52 | 1009.5 |
| 20260508155506 | 14 | 352 | 12.9 | 27.4 | 0.00 | 0.05 | 0.03 | 50 | 1009.5 |
| 20260508155006 | 15 | 5 | 14.5 | 27.4 | 0.00 | 0.05 | 0.03 | 48 | 1009.6 |
| 20260508154518 | 15 | 325 | 6.4 | 20.9 | 0.00 | 0.05 | 0.03 | 52 | 1009.5 |
| 20260508154008 | 14 | 311 | 6.4 | 25.7 | 0.00 | 0.05 | 0.03 | 52 | 1009.5 |
| 20260508153509 | 14 | 340 | 9.7 | 25.7 | 0.00 | 0.05 | 0.03 | 49 | 1009.6 |
| 20260508153016 | 15 | 352 | 11.3 | 27.4 | 0.00 | 0.05 | 0.03 | 51 | 1009.7 |
| 20260508152507 | 15 | 322 | 8.0 | 27.4 | 0.00 | 0.05 | 0.03 | 52 | 1009.5 |
| 20260508152009 | 15 | 335 | 8.0 | 25.7 | 0.00 | 0.05 | 0.03 | 55 | 1009.5 |
| 20260508151516 | 15 | 28 | 14.5 | 29.0 | 0.00 | 0.05 | 0.03 | 50 | 1009.4 |
| 20260508151012 | 15 | 35 | 9.7 | 38.6 | 0.00 | 0.05 | 0.03 | 53 | 1009.4 |
| 20260508150512 | 14 | 343 | 9.7 | 38.6 | 0.00 | 0.05 | 0.03 | 51 | 1009.4 |
| 20260508150023 | 15 | 57 | 11.3 | 30.6 | 0.00 | 0.05 | 0.03 | 50 | 1009.4 |
| 20260508145507 | 14 | 20 | 8.0 | 24.1 | 0.00 | 0.05 | 0.03 | 51 | 1009.1 |
| 20260508145007 | 14 | 355 | 9.7 | 24.1 | 0.00 | 0.05 | 0.03 | 54 | 1009.3 |
| 20260508144535 | 14 | 340 | 4.8 | 24.1 | 0.00 | 0.05 | 0.03 | 53 | 1009.1 |
| 20260508144007 | 13 | 5 | 8.0 | 20.9 | 0.00 | 0.05 | 0.03 | 53 | 1009.3 |
| 20260508143510 | 13 | 31 | 6.4 | 20.9 | 0.00 | 0.05 | 0.03 | 53 | 1009.4 |
| 20260508143029 | 13 | 344 | 9.7 | 25.7 | 0.00 | 0.05 | 0.03 | 54 | 1009.4 |
| 20260508142506 | 13 | 360 | 4.8 | 25.7 | 0.00 | 0.05 | 0.03 | 54 | 1009.6 |
| 20260508142008 | 13 | 14 | 12.9 | 25.7 | 0.00 | 0.05 | 0.03 | 53 | 1009.7 |
| 20260508141523 | 12 | 5 | 9.7 | 20.9 | 0.00 | 0.05 | 0.03 | 54 | 1009.7 |
| 20260508141011 | 12 | 269 | 8.0 | 19.3 | 0.00 | 0.05 | 0.03 | 54 | 1009.7 |
| 20260508140509 | 12 | 342 | 6.4 | 17.7 | 0.00 | 0.05 | 0.03 | 55 | 1009.8 |
| 20260508140034 | 12 | 302 | 6.4 | 14.5 | 0.00 | 0.05 | 0.03 | 56 | 1009.7 |
| 20260508135512 | 12 | 318 | 8.0 | 19.3 | 0.00 | 0.05 | 0.03 | 57 | 1009.8 |
| 20260508135008 | 12 | 351 | 9.7 | 19.3 | 0.00 | 0.05 | 0.03 | 55 | 1009.8 |
| 20260508134520 | 11 | 58 | 4.8 | 19.3 | 0.00 | 0.05 | 0.03 | 58 | 1009.8 |
| 20260508134009 | 11 | 19 | 8.0 | 17.7 | 0.00 | 0.05 | 0.03 | 58 | 1009.9 |
| 20260508133502 | 11 | 321 | 3.2 | 17.7 | 0.00 | 0.05 | 0.03 | 59 | 1010.0 |
| 20260508133003 | 11 | 296 | 3.2 | 16.1 | 0.00 | 0.05 | 0.03 | 59 | 1009.9 |
| 20260508132502 | 11 | 322 | 6.4 | 16.1 | 0.00 | 0.05 | 0.03 | 60 | 1010.0 |
| 20260508132002 | 11 | 340 | 8.0 | 16.1 | 0.00 | 0.05 | 0.03 | 61 | 1010.0 |
| 20260508131513 | 10 | 336 | 6.4 | 16.1 | 0.00 | 0.05 | 0.03 | 63 | 1010.1 |
| 20260508131010 | 10 | 5 | 1.6 | 14.5 | 0.00 | 0.05 | 0.03 | 66 | 1010.2 |
| 20260508130502 | 10 | 344 | 8.0 | 12.9 | 0.00 | 0.05 | 0.03 | 63 | 1010.2 |
| 20260508130020 | 10 | 261 | 4.8 | 12.9 | 0.00 | 0.05 | 0.03 | 68 | 1010.2 |
| 20260508125503 | 9 | 298 | 3.2 | 12.9 | 0.00 | 0.05 | 0.03 | 68 | 1010.2 |
| 20260508125007 | 8 | 5 | 1.6 | 12.9 | 0.00 | 0.05 | 0.03 | 72 | 1010.2 |
| 20260508124504 | 8 | 331 | 1.6 | 6.4 | 0.00 | 0.05 | 0.03 | 74 | 1010.2 |
| 20260508124002 | 7 | 319 | 3.2 | 8.0 | 0.00 | 0.05 | 0.03 | 75 | 1010.3 |
| 20260508123502 | 7 | 321 | 3.2 | 8.0 | 0.00 | 0.05 | 0.03 | 76 | 1010.4 |
| 20260508123009 | 6 | 355 | 1.6 | 6.4 | 0.00 | 0.05 | 0.03 | 77 | 1010.4 |
| 20260508122502 | 6 | 336 | 0.0 | 6.4 | 0.00 | 0.05 | 0.03 | 78 | 1010.3 |
| 20260508122003 | 5 | 327 | 1.6 | 6.4 | 0.00 | 0.05 | 0.03 | 77 | 1010.3 |
| 20260508121515 | 5 | 331 | 1.6 | 8.0 | 0.00 | 0.05 | 0.03 | 78 | 1010.3 |
| 20260508121003 | 5 | 333 | 3.2 | 8.0 | 0.00 | 0.05 | 0.03 | 79 | 1010.3 |
| 20260508120506 | 4 | 340 | 0.0 | 0.0 | 0.00 | 0.05 | 0.03 | 81 | 1010.2 |
| 20260508120009 | 4 | 336 | 0.0 | 0.0 | 0.00 | 0.05 | 0.03 | 83 | 1010.2 |
| 20260508115503 | 4 | 344 | 0.0 | 0.0 | 0.00 | 0.05 | 0.03 | 87 | 1010.4 |
| 20260508115006 | 3 | 337 | 0.0 | 0.0 | 0.00 | 0.05 | 0.03 | 86 | 1010.4 |
| 20260508114530 | 3 | 337 | 0.0 | 0.0 | 0.00 | 0.05 | 0.03 | 88 | 1010.5 |
| 20260508114006 | 3 | 60 | 0.0 | 0.0 | 0.00 | 0.05 | 0.03 | 90 | 1010.6 |
| 20260508113503 | 3 | 60 | 0.0 | 0.0 | 0.00 | 0.05 | 0.03 | 89 | 1010.6 |
| 20260508113007 | 3 | 60 | 0.0 | 0.0 | 0.00 | 0.05 | 0.03 | 89 | 1010.6 |
| 20260508112503 | 3 | 5 | 0.0 | 0.0 | 0.00 | 0.05 | 0.03 | 90 | 1010.6 |
| 20260508112003 | 2 | 335 | 0.0 | 0.0 | 0.00 | 0.05 | 0.03 | 91 | 1010.5 |
| 20260508111508 | 2 | 9 | 0.0 | 0.0 | 0.00 | 0.05 | 0.03 | 94 | 1010.5 |
| 20260508111004 | 2 | 9 | 0.0 | 0.0 | 0.00 | 0.05 | 0.03 | 95 | 1010.6 |
| 20260508110504 | 1 | 15 | 0.0 | 0.0 | 0.00 | 0.05 | 0.03 | 95 | 1010.6 |
| 20260508110013 | 1 | 5 | 0.0 | 0.0 | 0.00 | 0.05 | 0.03 | 94 | 1010.6 |
| 20260508105503 | 1 | 5 | 0.0 | 0.0 | 0.00 | 0.05 | 0.03 | 94 | 1010.4 |
| 20260508105007 | 1 | 5 | 0.0 | 0.0 | 0.00 | 0.05 | 0.03 | 94 | 1010.3 |
| 20260508104516 | 1 | 5 | 0.0 | 0.0 | 0.00 | 0.05 | 0.03 | 94 | 1010.3 |
| 20260508104003 | 1 | 5 | 0.0 | 0.0 | 0.00 | 0.05 | 0.03 | 94 | 1010.3 |
| 20260508103503 | 1 | 5 | 0.0 | 0.0 | 0.00 | 0.05 | 0.03 | 94 | 1010.1 |
| 20260508103006 | 1 | 5 | 0.0 | 0.0 | 0.00 | 0.05 | 0.03 | 94 | 1010.1 |
| 20260508102508 | 1 | 5 | 0.0 | 0.0 | 0.00 | 0.05 | 0.03 | 94 | 1010.0 |
| 20260508102011 | 1 | 5 | 0.0 | 0.0 | 0.00 | 0.05 | 0.03 | 94 | 1010.1 |
| 20260508101508 | 0 | 5 | 0.0 | 0.0 | 0.00 | 0.05 | 0.03 | 94 | 1010.0 |
| 20260508101003 | 0 | 5 | 0.0 | 0.0 | 0.00 | 0.05 | 0.03 | 94 | 1010.0 |
| 20260508100503 | 0 | 5 | 0.0 | 0.0 | 0.00 | 0.05 | 0.03 | 94 | 1010.0 |
| 20260508100009 | 0 | 5 | 0.0 | 0.0 | 0.00 | 0.05 | 0.03 | 93 | 1009.8 |
| 20260508095508 | 0 | 5 | 0.0 | 0.0 | 0.00 | 0.05 | 0.03 | 93 | 1009.8 |
| 20260508095004 | 0 | 5 | 0.0 | 0.0 | 0.00 | 0.05 | 0.03 | 93 | 1009.8 |
| 20260508094521 | 0 | 5 | 0.0 | 0.0 | 0.00 | 0.05 | 0.03 | 93 | 1009.9 |
| 20260508094007 | 0 | 5 | 0.0 | 0.0 | 0.00 | 0.05 | 0.03 | 93 | 1009.9 |
| 20260508093503 | 0 | 5 | 0.0 | 0.0 | 0.00 | 0.05 | 0.03 | 93 | 1009.7 |
| 20260508093012 | 0 | 5 | 0.0 | 0.0 | 0.00 | 0.05 | 0.03 | 93 | 1009.7 |
| 20260508092504 | 0 | 5 | 0.0 | 0.0 | 0.00 | 0.05 | 0.03 | 93 | 1009.7 |
| 20260508092004 | 0 | 5 | 0.0 | 0.0 | 0.00 | 0.05 | 0.03 | 93 | 1009.7 |
| 20260508091515 | 0 | 5 | 0.0 | 0.0 | 0.00 | 0.05 | 0.03 | 93 | 1009.7 |
| 20260508091008 | 0 | 5 | 0.0 | 0.0 | 0.00 | 0.05 | 0.03 | 93 | 1009.8 |
| 20260508090517 | 0 | 5 | 0.0 | 0.0 | 0.00 | 0.05 | 0.03 | 94 | 1009.8 |
| 20260508090018 | 0 | 5 | 0.0 | 0.0 | 0.00 | 0.05 | 0.03 | 93 | 1009.8 |
| 20260508085504 | 0 | 5 | 0.0 | 0.0 | 0.00 | 0.05 | 0.03 | 93 | 1009.7 |
| 20260508085007 | 0 | 5 | 0.0 | 0.0 | 0.00 | 0.05 | 0.03 | 93 | 1009.7 |
| 20260508084515 | 0 | 5 | 0.0 | 0.0 | 0.00 | 0.05 | 0.03 | 92 | 1009.7 |
| 20260508084004 | 0 | 5 | 0.0 | 0.0 | 0.00 | 0.05 | 0.03 | 92 | 1009.7 |
| 20260508083506 | 0 | 5 | 0.0 | 0.0 | 0.00 | 0.05 | 0.03 | 92 | 1009.7 |
| 20260508083009 | 0 | 5 | 0.0 | 0.0 | 0.00 | 0.05 | 0.03 | 92 | 1009.7 |
| 20260508082510 | 1 | 5 | 0.0 | 0.0 | 0.00 | 0.05 | 0.03 | 92 | 1009.7 |
| 20260508082007 | 1 | 5 | 0.0 | 0.0 | 0.00 | 0.05 | 0.03 | 92 | 1009.7 |
| 20260508081515 | 1 | 5 | 0.0 | 0.0 | 0.00 | 0.05 | 0.03 | 92 | 1009.7 |
| 20260508081005 | 1 | 5 | 0.0 | 0.0 | 0.00 | 0.05 | 0.03 | 92 | 1009.6 |
| 20260508080507 | 1 | 5 | 0.0 | 0.0 | 0.00 | 0.05 | 0.03 | 91 | 1009.6 |
| 20260508080011 | 1 | 5 | 0.0 | 0.0 | 0.00 | 0.05 | 0.03 | 92 | 1009.6 |
| 20260508075509 | 1 | 5 | 0.0 | 0.0 | 0.00 | 0.05 | 0.03 | 92 | 1009.7 |
| 20260508075008 | 1 | 5 | 0.0 | 0.0 | 0.00 | 0.05 | 0.03 | 92 | 1009.7 |
| 20260508074516 | 1 | 5 | 0.0 | 3.2 | 0.00 | 0.05 | 0.03 | 92 | 1009.7 |
| 20260508074007 | 1 | 5 | 0.0 | 3.2 | 0.00 | 0.05 | 0.03 | 93 | 1009.6 |
| 20260508073012 | 1 | 5 | 1.6 | 4.8 | 0.00 | 0.05 | 0.03 | 93 | 1009.6 |
| 20260508072504 | 1 | 9 | 0.0 | 4.8 | 0.00 | 0.05 | 0.03 | 94 | 1009.5 |
| 20260508072009 | 1 | 360 | 0.0 | 4.8 | 0.00 | 0.05 | 0.03 | 93 | 1009.6 |
| 20260508071516 | 1 | 350 | 0.0 | 3.2 | 0.00 | 0.05 | 0.03 | 93 | 1009.6 |
| 20260508071003 | 1 | 350 | 0.0 | 3.2 | 0.00 | 0.05 | 0.03 | 93 | 1009.7 |
| 20260508070511 | 1 | 350 | 0.0 | 3.2 | 0.00 | 0.05 | 0.03 | 92 | 1009.9 |
| 20260508070017 | 1 | 325 | 0.0 | 3.2 | 0.00 | 0.05 | 0.03 | 93 | 1009.9 |
| 20260508065509 | 1 | 34 | 0.0 | 0.0 | 0.00 | 0.05 | 0.03 | 93 | 1010.0 |
| 20260508065010 | 1 | 34 | 0.0 | 0.0 | 0.00 | 0.05 | 0.03 | 93 | 1010.0 |